{"data":{"norad_id":53413,"epoch":"2026-09-20T04:28:59.241792Z","epoch_age_seconds":102276,"freshness":"FRESH","line1":"1 53413U 22097AB  26263.18679678 -.00000228  00000+0  37815-5 0  9998","line2":"2 53413  53.1621 320.3287 0001006  85.4182 274.6924 15.08833036228010","mean_motion":15.08833036,"eccentricity":0.0001006,"inclination_deg":53.1621,"raan_deg":320.3287,"arg_perigee_deg":85.4182,"mean_anomaly_deg":274.6924,"bstar":3.7815e-6,"rev_number":22801,"period_min":95.437995168605,"perigee_km":539.06873429946,"apogee_km":540.46061611651,"semimajor_km":6917.901675208,"source":"CELESTRAK","updated_at":"2026-09-20T09:00:40.227979Z"}}